| time (UTC) | temp C | wind direction | speed KPH | gust KPH | rain 1hr cm | rain 24hr cm | rain mn cm | humidity % | barometer mb |
| 20260504021540 | 11 | 257 | 3.2 | 8.0 | 0.00 | 0.05 | 0.05 | 57 | 1007.4 |
| 20260504021026 | 12 | 223 | 3.2 | 8.0 | 0.00 | 0.05 | 0.05 | 56 | 1007.3 |
| 20260504020524 | 13 | 167 | 1.6 | 4.8 | 0.00 | 0.05 | 0.05 | 52 | 1007.2 |
| 20260504020039 | 15 | 0 | 0.0 | 0.0 | 0.00 | 0.05 | 0.05 | 48 | 1007.3 |
| 20260504015525 | 16 | 0 | 0.0 | 0.0 | 0.00 | 0.05 | 0.05 | 48 | 1007.3 |
| 20260504015025 | 17 | 0 | 0.0 | 0.0 | 0.00 | 0.05 | 0.05 | 48 | 1007.3 |
| 20260504014550 | 17 | 0 | 0.0 | 0.0 | 0.00 | 0.05 | 0.05 | 45 | 1007.4 |
| 20260504014024 | 17 | 0 | 0.0 | 0.0 | 0.00 | 0.05 | 0.05 | 41 | 1007.4 |
| 20260504013524 | 17 | 0 | 0.0 | 4.8 | 0.00 | 0.05 | 0.05 | 42 | 1007.5 |
| 20260504013038 | 17 | 0 | 0.0 | 6.4 | 0.00 | 0.05 | 0.05 | 41 | 1007.5 |
| 20260504012527 | 17 | 98 | 3.2 | 6.4 | 0.00 | 0.05 | 0.05 | 39 | 1007.6 |
| 20260504012027 | 17 | 98 | 1.6 | 9.7 | 0.00 | 0.05 | 0.05 | 40 | 1007.6 |
| 20260504011535 | 18 | 112 | 1.6 | 11.3 | 0.00 | 0.05 | 0.05 | 40 | 1007.6 |
| 20260504011026 | 18 | 116 | 4.8 | 11.3 | 0.00 | 0.05 | 0.05 | 40 | 1007.7 |
| 20260504010524 | 18 | 78 | 1.6 | 8.0 | 0.00 | 0.05 | 0.05 | 41 | 1007.7 |
| 20260504010049 | 18 | 79 | 1.6 | 9.7 | 0.00 | 0.05 | 0.05 | 39 | 1007.8 |
| 20260504005525 | 18 | 67 | 3.2 | 9.7 | 0.00 | 0.05 | 0.05 | 38 | 1007.7 |
| 20260504005025 | 18 | 67 | 3.2 | 14.5 | 0.00 | 0.05 | 0.05 | 39 | 1007.7 |
| 20260504004545 | 19 | 69 | 3.2 | 14.5 | 0.00 | 0.05 | 0.05 | 40 | 1007.8 |
| 20260504004024 | 19 | 103 | 4.8 | 17.7 | 0.00 | 0.05 | 0.05 | 36 | 1007.8 |
| 20260504003527 | 19 | 113 | 6.4 | 17.7 | 0.00 | 0.05 | 0.05 | 34 | 1007.8 |
| 20260504003038 | 20 | 95 | 6.4 | 16.1 | 0.00 | 0.05 | 0.05 | 37 | 1007.9 |
| 20260504002524 | 20 | 65 | 6.4 | 17.7 | 0.00 | 0.05 | 0.05 | 34 | 1008.0 |
| 20260504002027 | 20 | 68 | 4.8 | 17.7 | 0.00 | 0.05 | 0.05 | 35 | 1008.1 |
| 20260504001546 | 20 | 87 | 8.0 | 17.7 | 0.00 | 0.05 | 0.05 | 34 | 1008.1 |
| 20260504001024 | 20 | 92 | 9.7 | 19.3 | 0.00 | 0.05 | 0.05 | 32 | 1008.2 |
| 20260504000523 | 20 | 63 | 11.3 | 22.5 | 0.00 | 0.05 | 0.05 | 37 | 1008.1 |
| 20260504000038 | 20 | 98 | 8.0 | 24.1 | 0.00 | 0.05 | 0.05 | 37 | 1008.3 |
| 20260503235525 | 20 | 63 | 12.9 | 24.1 | 0.00 | 0.05 | 0.05 | 38 | 1008.3 |
| 20260503235027 | 20 | 67 | 8.0 | 22.5 | 0.00 | 0.05 | 0.05 | 35 | 1008.2 |
| 20260503234541 | 20 | 76 | 8.0 | 24.1 | 0.00 | 0.05 | 0.05 | 37 | 1008.4 |
| 20260503234025 | 20 | 107 | 9.7 | 24.1 | 0.00 | 0.05 | 0.05 | 36 | 1008.3 |
| 20260503233525 | 20 | 104 | 9.7 | 24.1 | 0.00 | 0.05 | 0.05 | 39 | 1008.4 |
| 20260503233042 | 20 | 57 | 12.9 | 22.5 | 0.00 | 0.05 | 0.05 | 40 | 1008.4 |
| 20260503232526 | 20 | 78 | 9.7 | 17.7 | 0.00 | 0.05 | 0.05 | 39 | 1008.4 |
| 20260503232024 | 20 | 104 | 8.0 | 19.3 | 0.00 | 0.05 | 0.05 | 40 | 1008.5 |
| 20260503231539 | 20 | 57 | 12.9 | 25.7 | 0.00 | 0.05 | 0.05 | 40 | 1008.6 |
| 20260503231025 | 20 | 103 | 14.5 | 25.7 | 0.00 | 0.05 | 0.05 | 41 | 1008.6 |
| 20260503230525 | 20 | 113 | 12.9 | 22.5 | 0.00 | 0.05 | 0.05 | 40 | 1008.6 |
| 20260503230038 | 20 | 63 | 12.9 | 22.5 | 0.00 | 0.05 | 0.05 | 43 | 1008.5 |
| 20260503225525 | 20 | 109 | 9.7 | 20.9 | 0.00 | 0.05 | 0.05 | 43 | 1008.6 |
| 20260503225024 | 20 | 64 | 9.7 | 25.7 | 0.00 | 0.05 | 0.05 | 43 | 1008.6 |
| 20260503224538 | 20 | 103 | 8.0 | 25.7 | 0.00 | 0.05 | 0.05 | 43 | 1008.7 |
| 20260503224027 | 20 | 80 | 12.9 | 25.7 | 0.00 | 0.05 | 0.05 | 43 | 1008.7 |
| 20260503223528 | 20 | 77 | 4.8 | 16.1 | 0.00 | 0.05 | 0.05 | 42 | 1008.8 |
| 20260503223043 | 20 | 80 | 8.0 | 16.1 | 0.00 | 0.05 | 0.05 | 46 | 1008.8 |
| 20260503222523 | 19 | 91 | 8.0 | 17.7 | 0.00 | 0.05 | 0.05 | 45 | 1008.9 |
| 20260503222026 | 19 | 54 | 9.7 | 17.7 | 0.00 | 0.05 | 0.05 | 44 | 1009.0 |
| 20260503221551 | 19 | 54 | 8.0 | 17.7 | 0.00 | 0.05 | 0.05 | 41 | 1009.1 |
| 20260503221026 | 20 | 100 | 8.0 | 19.3 | 0.00 | 0.05 | 0.05 | 46 | 1009.2 |
| 20260503220528 | 19 | 53 | 8.0 | 19.3 | 0.00 | 0.05 | 0.05 | 44 | 1009.2 |
| 20260503220040 | 19 | 55 | 9.7 | 22.5 | 0.00 | 0.05 | 0.05 | 43 | 1009.4 |
| 20260503215524 | 19 | 49 | 8.0 | 22.5 | 0.00 | 0.05 | 0.05 | 42 | 1009.4 |
| 20260503215024 | 19 | 64 | 4.8 | 17.7 | 0.00 | 0.05 | 0.05 | 43 | 1009.5 |
| 20260503214537 | 19 | 57 | 6.4 | 17.7 | 0.00 | 0.05 | 0.05 | 49 | 1009.7 |
| 20260503214027 | 19 | 50 | 4.8 | 19.3 | 0.00 | 0.05 | 0.05 | 45 | 1009.7 |
| 20260503213524 | 19 | 65 | 4.8 | 19.3 | 0.00 | 0.05 | 0.05 | 43 | 1009.9 |
| 20260503213037 | 19 | 88 | 9.7 | 19.3 | 0.00 | 0.05 | 0.05 | 43 | 1010.1 |
| 20260503212527 | 19 | 61 | 3.2 | 17.7 | 0.00 | 0.05 | 0.05 | 45 | 1010.1 |
| 20260503212027 | 19 | 34 | 4.8 | 17.7 | 0.00 | 0.05 | 0.05 | 45 | 1010.3 |
| 20260503211545 | 19 | 340 | 4.8 | 17.7 | 0.00 | 0.05 | 0.05 | 43 | 1010.3 |
| 20260503211029 | 19 | 55 | 8.0 | 20.9 | 0.00 | 0.05 | 0.05 | 44 | 1010.6 |
| 20260503210531 | 19 | 321 | 3.2 | 20.9 | 0.00 | 0.05 | 0.05 | 48 | 1010.7 |
| 20260503210041 | 19 | 345 | 8.0 | 19.3 | 0.00 | 0.05 | 0.05 | 44 | 1010.7 |
| 20260503205524 | 18 | 30 | 4.8 | 27.4 | 0.00 | 0.05 | 0.05 | 48 | 1010.7 |
| 20260503205025 | 18 | 92 | 12.9 | 27.4 | 0.00 | 0.05 | 0.05 | 46 | 1011.0 |
| 20260503204542 | 18 | 65 | 17.7 | 27.4 | 0.00 | 0.05 | 0.05 | 47 | 1011.0 |
| 20260503204027 | 17 | 63 | 11.3 | 22.5 | 0.00 | 0.05 | 0.05 | 44 | 1011.1 |
| 20260503203528 | 17 | 51 | 12.9 | 22.5 | 0.00 | 0.05 | 0.05 | 42 | 1011.2 |
| 20260503203038 | 17 | 85 | 11.3 | 24.1 | 0.00 | 0.05 | 0.05 | 45 | 1011.0 |
| 20260503202524 | 17 | 91 | 9.7 | 24.1 | 0.00 | 0.05 | 0.05 | 44 | 1011.1 |
| 20260503202024 | 18 | 66 | 14.5 | 24.1 | 0.00 | 0.05 | 0.05 | 42 | 1011.2 |
| 20260503201537 | 18 | 54 | 6.4 | 16.1 | 0.00 | 0.05 | 0.05 | 45 | 1011.2 |
| 20260503201025 | 18 | 88 | 6.4 | 22.5 | 0.00 | 0.05 | 0.05 | 41 | 1011.3 |
| 20260503200524 | 18 | 88 | 8.0 | 24.1 | 0.00 | 0.05 | 0.05 | 52 | 1011.4 |
| 20260503200037 | 18 | 49 | 14.5 | 24.1 | 0.00 | 0.05 | 0.05 | 46 | 1011.3 |
| 20260503195523 | 18 | 45 | 8.0 | 22.5 | 0.00 | 0.05 | 0.05 | 45 | 1011.3 |
| 20260503195030 | 18 | 51 | 8.0 | 22.5 | 0.00 | 0.05 | 0.05 | 46 | 1011.4 |
| 20260503194542 | 18 | 42 | 12.9 | 22.5 | 0.00 | 0.05 | 0.05 | 44 | 1011.5 |
| 20260503194027 | 18 | 49 | 6.4 | 20.9 | 0.00 | 0.05 | 0.05 | 46 | 1011.5 |
| 20260503193526 | 18 | 100 | 12.9 | 20.9 | 0.00 | 0.05 | 0.05 | 47 | 1011.5 |
| 20260503193044 | 18 | 102 | 9.7 | 16.1 | 0.00 | 0.05 | 0.05 | 45 | 1011.6 |
| 20260503192524 | 18 | 111 | 8.0 | 20.9 | 0.00 | 0.05 | 0.05 | 45 | 1011.6 |
| 20260503192026 | 18 | 46 | 6.4 | 20.9 | 0.00 | 0.05 | 0.05 | 46 | 1011.7 |
| 20260503191538 | 18 | 36 | 12.9 | 20.9 | 0.00 | 0.05 | 0.05 | 44 | 1011.8 |
| 20260503191027 | 18 | 74 | 6.4 | 16.1 | 0.00 | 0.05 | 0.05 | 51 | 1012.0 |
| 20260503190524 | 17 | 132 | 8.0 | 16.1 | 0.00 | 0.05 | 0.05 | 44 | 1012.0 |
| 20260503190041 | 17 | 75 | 4.8 | 17.7 | 0.00 | 0.05 | 0.05 | 44 | 1012.0 |
| 20260503185527 | 18 | 96 | 9.7 | 17.7 | 0.00 | 0.05 | 0.05 | 47 | 1012.1 |
| 20260503185024 | 17 | 0 | 0.0 | 16.1 | 0.00 | 0.05 | 0.05 | 42 | 1012.2 |
| 20260503184545 | 17 | 27 | 8.0 | 16.1 | 0.00 | 0.05 | 0.05 | 48 | 1012.3 |
| 20260503184026 | 17 | 0 | 3.2 | 11.3 | 0.00 | 0.05 | 0.05 | 44 | 1012.3 |
| 20260503183525 | 17 | 0 | 3.2 | 14.5 | 0.00 | 0.05 | 0.05 | 41 | 1012.4 |
| 20260503183053 | 17 | 51 | 6.4 | 14.5 | 0.00 | 0.05 | 0.05 | 42 | 1012.3 |
| 20260503182524 | 17 | 28 | 1.6 | 14.5 | 0.00 | 0.05 | 0.05 | 45 | 1012.5 |
| 20260503182027 | 17 | 38 | 3.2 | 11.3 | 0.00 | 0.05 | 0.05 | 48 | 1012.7 |
| 20260503181549 | 17 | 46 | 1.6 | 20.9 | 0.00 | 0.05 | 0.05 | 44 | 1012.7 |
| 20260503181024 | 17 | 33 | 3.2 | 20.9 | 0.00 | 0.05 | 0.05 | 51 | 1012.9 |
| 20260503180524 | 17 | 104 | 1.6 | 6.4 | 0.00 | 0.05 | 0.05 | 47 | 1012.9 |
| 20260503180038 | 17 | 62 | 1.6 | 6.4 | 0.00 | 0.05 | 0.05 | 47 | 1013.0 |
| 20260503175525 | 17 | 325 | 3.2 | 6.4 | 0.00 | 0.05 | 0.05 | 47 | 1013.0 |
| 20260503175025 | 17 | 0 | 1.6 | 11.3 | 0.00 | 0.05 | 0.05 | 51 | 1013.0 |
| 20260503174544 | 17 | 191 | 1.6 | 11.3 | 0.00 | 0.05 | 0.05 | 49 | 1013.0 |
| 20260503174028 | 16 | 0 | 0.0 | 11.3 | 0.00 | 0.05 | 0.05 | 50 | 1013.1 |
| 20260503173524 | 16 | 257 | 3.2 | 11.3 | 0.00 | 0.05 | 0.05 | 55 | 1013.2 |
| 20260503173047 | 16 | 247 | 3.2 | 9.7 | 0.00 | 0.05 | 0.05 | 53 | 1013.3 |
| 20260503172531 | 16 | 265 | 3.2 | 9.7 | 0.00 | 0.05 | 0.05 | 56 | 1013.3 |
| 20260503172029 | 15 | 223 | 4.8 | 11.3 | 0.03 | 0.05 | 0.05 | 54 | 1013.3 |
| 20260503171539 | 15 | 254 | 0.0 | 11.3 | 0.05 | 0.05 | 0.05 | 60 | 1013.3 |
| 20260503171025 | 15 | 253 | 3.2 | 9.7 | 0.05 | 0.05 | 0.05 | 55 | 1013.3 |
| 20260503170525 | 14 | 294 | 1.6 | 6.4 | 0.05 | 0.05 | 0.05 | 57 | 1013.3 |
| 20260503150527 | 13 | 281 | 8.0 | 16.1 | 0.00 | 0.00 | 0.00 | 56 | 1013.8 |
| 20260503131033 | 8 | 360 | 8.0 | 17.7 | 0.00 | 0.00 | 0.00 | 70 | 1014.7 |
| 20260503130527 | 7 | 282 | 11.3 | 17.7 | 0.00 | 0.00 | 0.00 | 71 | 1014.6 |
| 20260503110533 | 4 | 228 | 6.4 | 11.3 | 0.00 | 0.00 | 0.00 | 83 | 1015.2 |
| 20260503081542 | 5 | 237 | 1.6 | 4.8 | 0.00 | 0.00 | 0.00 | 81 | 1015.7 |
| 20260503081028 | 5 | 0 | 0.0 | 0.0 | 0.00 | 0.00 | 0.00 | 81 | 1015.8 |
| 20260503080528 | 5 | 0 | 0.0 | 0.0 | 0.00 | 0.00 | 0.00 | 80 | 1015.7 |
| 20260503072528 | 6 | 0 | 1.6 | 6.4 | 0.00 | 0.00 | 0.00 | 78 | 1015.3 |
| 20260503072028 | 6 | 139 | 1.6 | 8.0 | 0.00 | 0.00 | 0.00 | 78 | 1015.3 |
| 20260503071538 | 6 | 0 | 1.6 | 8.0 | 0.00 | 0.00 | 0.00 | 78 | 1015.2 |
| 20260503071028 | 6 | 136 | 3.2 | 8.0 | 0.00 | 0.00 | 0.00 | 78 | 1015.2 |
| 20260503070528 | 5 | 0 | 0.0 | 8.0 | 0.00 | 0.00 | 0.00 | 79 | 1015.2 |
| 20260503055027 | 5 | 0 | 0.0 | 3.2 | 0.00 | 0.00 | 0.00 | 77 | 1015.8 |
| 20260503054542 | 5 | 0 | 0.0 | 6.4 | 0.00 | 0.00 | 0.00 | 78 | 1015.8 |
| 20260503054029 | 5 | 0 | 0.0 | 6.4 | 0.00 | 0.00 | 0.00 | 77 | 1015.8 |
| 20260503053528 | 5 | 360 | 1.6 | 6.4 | 0.00 | 0.00 | 0.00 | 77 | 1015.7 |
| 20260503053036 | 5 | 0 | 0.0 | 8.0 | 0.00 | 0.00 | 0.00 | 77 | 1015.8 |
| 20260503052529 | 5 | 0 | 1.6 | 8.0 | 0.00 | 0.00 | 0.00 | 77 | 1015.7 |
| 20260503052029 | 5 | 207 | 3.2 | 6.4 | 0.00 | 0.00 | 0.00 | 79 | 1015.6 |
| 20260503051544 | 4 | 207 | 1.6 | 6.4 | 0.00 | 0.00 | 0.00 | 79 | 1015.7 |
| 20260503051027 | 5 | 207 | 1.6 | 8.0 | 0.00 | 0.00 | 0.00 | 77 | 1015.7 |
| 20260503050528 | 5 | 207 | 0.0 | 8.0 | 0.00 | 0.00 | 0.00 | 78 | 1015.6 |
| 20260503050040 | 5 | 207 | 3.2 | 8.0 | 0.00 | 0.00 | 0.00 | 79 | 1015.7 |
| 20260503045528 | 5 | 190 | 3.2 | 4.8 | 0.00 | 0.00 | 0.00 | 80 | 1015.8 |
| 20260503045031 | 4 | 189 | 3.2 | 4.8 | 0.00 | 0.00 | 0.00 | 80 | 1015.8 |
| 20260503044542 | 4 | 188 | 0.0 | 4.8 | 0.00 | 0.00 | 0.00 | 80 | 1015.9 |
| 20260503044028 | 4 | 188 | 1.6 | 4.8 | 0.00 | 0.00 | 0.00 | 81 | 1016.0 |
| 20260503043528 | 4 | 360 | 1.6 | 6.4 | 0.00 | 0.00 | 0.00 | 79 | 1015.9 |
| 20260503043042 | 4 | 0 | 1.6 | 6.4 | 0.00 | 0.00 | 0.00 | 80 | 1015.8 |
| 20260503042528 | 4 | 188 | 1.6 | 4.8 | 0.00 | 0.00 | 0.00 | 80 | 1015.8 |
| 20260503042028 | 4 | 188 | 3.2 | 4.8 | 0.00 | 0.00 | 0.00 | 79 | 1015.8 |
| 20260503041543 | 4 | 0 | 0.0 | 3.2 | 0.00 | 0.00 | 0.00 | 77 | 1015.6 |
| 20260503041031 | 5 | 188 | 0.0 | 0.0 | 0.00 | 0.00 | 0.00 | 76 | 1015.5 |
| 20260503040527 | 5 | 0 | 0.0 | 6.4 | 0.00 | 0.00 | 0.00 | 75 | 1015.6 |
| 20260503040043 | 5 | 0 | 0.0 | 8.0 | 0.00 | 0.00 | 0.00 | 75 | 1015.6 |
| 20260503035528 | 5 | 188 | 3.2 | 9.7 | 0.00 | 0.00 | 0.00 | 76 | 1015.5 |
| 20260503035028 | 5 | 173 | 4.8 | 9.7 | 0.00 | 0.00 | 0.00 | 77 | 1015.3 |
| 20260503034539 | 5 | 173 | 3.2 | 8.0 | 0.00 | 0.00 | 0.00 | 78 | 1015.3 |
| 20260503034028 | 5 | 172 | 1.6 | 3.2 | 0.00 | 0.00 | 0.00 | 76 | 1015.3 |
| 20260503033527 | 5 | 360 | 0.0 | 4.8 | 0.00 | 0.00 | 0.00 | 75 | 1015.2 |
| 20260503033046 | 6 | 0 | 0.0 | 8.0 | 0.00 | 0.00 | 0.00 | 74 | 1015.3 |
| 20260503032528 | 6 | 0 | 1.6 | 8.0 | 0.00 | 0.00 | 0.00 | 74 | 1015.2 |
| 20260503032028 | 6 | 172 | 4.8 | 8.0 | 0.00 | 0.00 | 0.00 | 74 | 1015.2 |
| 20260503031539 | 6 | 167 | 3.2 | 6.4 | 0.00 | 0.00 | 0.00 | 73 | 1015.2 |
| 20260503031029 | 6 | 167 | 0.0 | 4.8 | 0.00 | 0.00 | 0.00 | 72 | 1015.2 |
| 20260503030529 | 6 | 0 | 0.0 | 0.0 | 0.00 | 0.00 | 0.00 | 72 | 1015.2 |
| 20260503030037 | 7 | 0 | 0.0 | 6.4 | 0.00 | 0.00 | 0.00 | 71 | 1015.1 |
| 20260503025528 | 7 | 0 | 1.6 | 6.4 | 0.00 | 0.00 | 0.00 | 70 | 1015.1 |
| 20260503025029 | 8 | 167 | 1.6 | 6.4 | 0.00 | 0.00 | 0.00 | 68 | 1015.0 |
| 20260503024540 | 8 | 360 | 3.2 | 6.4 | 0.00 | 0.00 | 0.00 | 67 | 1014.9 |
| 20260503024028 | 8 | 167 | 1.6 | 6.4 | 0.00 | 0.00 | 0.00 | 66 | 1014.9 |
| 20260503023527 | 9 | 84 | 0.0 | 4.8 | 0.00 | 0.00 | 0.00 | 63 | 1014.6 |
| 20260503023038 | 10 | 0 | 0.0 | 0.0 | 0.00 | 0.00 | 0.00 | 61 | 1014.7 |
| 20260503022527 | 10 | 0 | 0.0 | 0.0 | 0.00 | 0.00 | 0.00 | 60 | 1014.7 |
| 20260503022036 | 11 | 0 | 0.0 | 0.0 | 0.00 | 0.00 | 0.00 | 60 | 1014.7 |